Weather Roundup
Issued by NWS Springfield, MO

Home | Current Version | Previous Version | Text Only | Print | Product List | Glossary On
Versions: 1 2 3 4 5 6 7 8 9 10 11 12 13 14 15 16 17 18 19 20 21 22 23 24 25 26 27 28 29 30 31 32 33 34 35 36 37 38 39 40 41 42 43 44 45 46 47 48 49 50
000
NZUS99 KSGF 281159
HRRSGF

HOURLY WEATHER
NATIONAL WEATHER SERVICE SPRINGFIELD MO
600 AM CST SAT FEB 28 2015

......SGF CWA......

CITY           SKY/WX    TMP DP  RH WIND       PRES   REMARKS
SPRINGFIELD    CLOUDY    20  11  68 SE12      30.47S WCI   8
6HR MIN TEMP:  19; 6HR MAX TEMP:  20;

JOPLIN         CLOUDY    20  14  77 SE8       30.49R WCI  10
6HR MIN TEMP:  18; 6HR MAX TEMP:  20;

WEST PLAINS    FLURRIES  18   9  68 E9        30.52S WCI   7
6HR MIN TEMP:  18; 6HR MAX TEMP:  20; 6HR PCP: TRACE;

ROLLA          CLOUDY    18   8  65 E9        30.53R WCI   7
6HR MIN TEMP:  18; 6HR MAX TEMP:  19;

OSAGE BEACH    CLOUDY    21   5  49 E6        30.54R WCI  14

......SURROUNDING SGF CWA......

CITY           SKY/WX    TMP DP  RH WIND       PRES   REMARKS
CHANUTE        CLOUDY    20  13  74 SE6       30.48S WCI  12
PARSONS        CLOUDY    21  14  74 SE5       30.49S WCI  15
COFFEYVILLE    FLURRIES  20  15  81 SE8       30.49S WCI  10
EMPORIA        CLOUDY    17   8  67 SE9       30.44F WCI   6
SILOAM SPRINGS CLOUDY    19  10  68 E3        30.47R
HARRISON AR    LGT SNOW  17  14  88 E9        30.48R FOG     WCI   6
NEAR YELLVILLE PTCLDY    19  12  73 E5        30.53S WCI  13

......KANSAS AND MISSOURI......

CITY           SKY/WX    TMP DP  RH WIND       PRES   REMARKS
KANSAS CTY INT CLOUDY    15   8  73 E7        30.51S WCI   5
DOWNTOWN KC    CLOUDY    17   9  70 E7        30.53S WCI   8
COLUMBIA       CLOUDY    16  10  77 E8        30.57R WCI   5
SEDALIA        MOCLDY    18   8  65 E6        30.56R WCI  10
ST JOSEPH      CLEAR     13   6  74 E5        30.54R WCI   5
ST LOUIS       CLOUDY    16   5  62 E7        30.64S WCI   6
SPIRIT OF STL  CLOUDY    17   4  56 E6        30.63S WCI   9
WICHITA        LGT SNOW  17  11  77 SE8       30.41S WCI   7
TOPEKA         CLOUDY    15   7  70 E5        30.51S WCI   8
OLATHE         CLOUDY    17   8  67 E7        30.49S WCI   8

......TENNESSEE......

CITY           SKY/WX    TMP DP  RH WIND       PRES   REMARKS
MEMPHIS        CLOUDY    30  13  49 NE12      30.54R WCI  20
NASHVILLE      CLOUDY    25  10  53 NE8       30.59R WCI  16

......ARKANSAS.......

CITY           SKY/WX    TMP DP  RH WIND       PRES   REMARKS
FAYETTEVILLE   FLURRIES  19  17  92 CALM      30.46R
FT SMITH       LGT SNOW  23  19  85 E9        30.51R FOG     WCI  13
LITTLE ROCK    CLOUDY    27  16  63 NE12      30.54R WCI  17

......OKLAHOMA.......

CITY           SKY/WX    TMP DP  RH WIND       PRES   REMARKS
TULSA          LGT SNOW  21  18  88 E5        30.48F FOG     WCI  15
PONCA CITY     LGT SNOW  19  15  84 E7        30.43F FOG     WCI  10
MCALESTER      LGT SNOW  22  19  89 NE6       30.45S VSB 1   WCI  14
OKLAHOMA CITY  LGT SNOW  20  14  77 E6        30.39S VSB 3/4 WCI  12

......IOWA............

CITY           SKY/WX    TMP DP  RH WIND       PRES   REMARKS
DES MOINES     CLEAR      2  -5  72 SE5       30.56S WCI  -8
QUAD CITIES    MOCLDY   -14 -20  74 E3        30.68R

......ILLINOIS........

CITY           SKY/WX    TMP DP  RH WIND       PRES   REMARKS
QUINCY         NOT AVBL
CHICAGO        FAIR      -7 -11  83 S3        30.69R



USA.gov is the U.S. government's official web portal to all federal, state and local government web resources and services.